Location: Columbia
(38.9520°N, 92.3340°W)
Time: 08:47:48
(UTC-05:00)

Iridium 52 - Visible Passes

Search period start: 20 April 2014 00:00
Search period end: 30 April 2014 00:00
Orbit: 776 x 779 km, 86.4° (Epoch: 19 April)

Date Brightness Start Highest point End Pass type
(mag) Time Alt. Az. Time Alt. Az. Time Alt. Az.
21 Apr 8.2 05:34:40 10° NNE 05:39:13 30° E 05:43:44 10° SE visible
22 Apr 9.0 05:02:11 10° NE 05:05:25 16° ENE 05:08:38 10° ESE visible
24 Apr 7.4 05:34:27 10° NNE 05:39:25 43° E 05:44:21 10° SSE visible
25 Apr 8.5 05:01:33 10° NNE 05:05:42 24° ENE 05:09:49 10° SE visible
26 Apr 9.1 04:29:36 10° NE 04:31:50 13° ENE 04:34:04 10° E visible
27 Apr 6.6 05:34:22 10° N 05:39:33 64° E 05:44:42 10° SSE visible
28 Apr 7.8 05:01:11 10° NNE 05:05:55 34° E 05:10:36 10° SE visible
29 Apr 8.8 04:28:32 10° NNE 04:32:08 19° ENE 04:35:43 10° ESE visible
